Location: Curupao
(10.4996°N, 66.6442°W)
Time: 19:47:56
(UTC+00:00)

ATLAS 5 CENTAUR R/B - Pass Details

Date: 23 May 2024
Orbit: 258 x 11804 km, 20.2° (Epoch: 22 June)

Event Time Altitude Azimuth Distance (km) Brightness Sun altitude
Rises 04:56:23 0° 286° (WNW) 17,069 8.4 -57.8°
Reaches altitude 10° 05:21:03 10° 287° (WNW) 15,402 8.0 -55.8°
Enters shadow 06:23:09 67° 271° (W) 4,411 4.9 -47.1°
Exits shadow 06:29:37 75° 154° (SSE) 3,114 4.2 -46.0°
Drops below altitude 10° 06:38:32 10° 117° (ESE) 3,683 5.1 -44.4°
Sets 06:40:21 0° 116° (ESE) 4,187 5.5 -44.1°
